Overview Statistics Trail Chart Weather Telemetry Raw packets
 

This is the latest recevied weather packets stored in our database for station/object G4KVI. If no packets are shown the sender has not sent any weather packets the latest 10 day(s).

<< 73 74 75 76 77 78 79 >>
Time Temp. Humidity Pressure Rain* Wind** Luminosity Snow
1788074404 15.56° C 90% 1011.4 hPa 0 mm - 83 W/m² -
1788074104 15.56° C 90% 1011.6 hPa 0 mm - 80 W/m² -
1788073818 16.11° C 90% 1011.6 hPa 0 mm - 66 W/m² -
1788073504 16.11° C 90% 1011.7 hPa 0 mm - 64 W/m² -
1788073204 16.11° C 90% 1011.3 hPa 0 mm - 70 W/m² -
1788072903 16.11° C 91% 1011.7 hPa 0 mm - 82 W/m² -
1788072604 16.11° C 92% 1011.6 hPa 0 mm - 74 W/m² -
1788072303 15.56° C 93% 1011.5 hPa 0 mm - 79 W/m² -
1788072004 15.56° C 94% 1011.2 hPa 0 mm - 69 W/m² -
1788071704 15.56° C 95% 1011.3 hPa 0 mm - 62 W/m² -
1788071403 15° C 95% 1011.4 hPa 0 mm - 58 W/m² -
1788071103 15° C 95% 1011.5 hPa 0 mm - 43 W/m² -
1788070803 15° C 95% 1011.3 hPa 0 mm - 33 W/m² -
1788070504 14.44° C 95% 1011.4 hPa 0 mm - 30 W/m² -
1788070204 15° C 95% 1011.3 hPa 0 mm - 27 W/m² -
1788069904 15° C 95% 1011.4 hPa 0 mm - 33 W/m² -
1788069603 14.44° C 96% 1011.2 hPa 0 mm - 33 W/m² -
1788069303 14.44° C 96% 1011.3 hPa 0 mm - 25 W/m² -
1788069004 14.44° C 96% 1011.4 hPa 0 mm - 20 W/m² -
1788068703 14.44° C 96% 1011 hPa 0 mm - 14 W/m² -
1788068403 14.44° C 95% 1011.1 hPa 0 mm - 12 W/m² -
1788068103 14.44° C 96% 1011.1 hPa 0 mm - 9 W/m² -
1788067803 13.89° C 95% 1011.2 hPa 0 mm - 6 W/m² -
1788067503 13.89° C 95% 1011.2 hPa 0 mm - 4 W/m² -
1788067204 13.89° C 95% 1011.2 hPa 0 mm - 3 W/m² -

* Rain latest hour (hover to see other rain measurements)
** Current wind speed in m/s (hover to see current wind gust speed)